User: anonymous   Login
Location: Caltech
(34.1382°N, 118.1253°W)
Time: 12:50:01
(UTC-07:00)
Language:

Iridium 91 - Orbit

View from above orbital plane
View from above orbital plane
View from above satellite
View from above satellite

Ground track
Ground track

The orbit data is extracted from the following two-line orbital elements,

1 27372U 02005A   18174.39535913  .00000101  00000-0  29049-4 0  9997
2 27372  86.3969 132.0671 0001866  84.8585 275.2824 14.34215094864835
Epoch (UTC): 23 June 2018 09:29:19
Eccentricity: 0.0001866
inclination: 86.3969°
perigee height: 776 km
apogee height: 779 km
right ascension of ascending node: 132.0671°
argument of perigee: 84.8585°
revolutions per day: 14.34215094
mean anomaly at epoch: 275.2824°
orbit number at epoch: 86483

The dashed part of the orbit path shows where the satellite is in the earth's shadow,  

DLR